Погода Борзя

Погода Борзя : погода сейчас, прогноз погоды и архив. Всё, что Вы хотите узнать о погоде Борзя!

Хотите узнать прогноз погоды Борзя? Тогда Вам сюда: Погода Борзя

Поиск расширенной информации на нашем сайте:

Другие новости

Новости СМИ2

Главная страница сайта

Новости сайта

03.07.2017

Напоминаем, что на нашем специализированном сайте Метеоцентр.Азия вы можете получить высокодетализированные автоматические прогнозы погоды по пунктам России, СНГ и мира в авиационном формате (включающие направление и скорость ветра, видимость, явления погоды, количество и форму облачности, нижнюю и верхнюю границу облачности).


Погода Борзя - сегодня

Время (UTC), дата Ветер
(°,м/с) 
Видим.   Явления Облачность Т
(°С)
Тd
(°С)
f(%) Тe
(°С)
Pmin
(гПа)
dP
(гПа)
Po
(мм)
O2
(г/м3)
Тmin Tmax R s Состояние
почвы
09 21.02.18 300 (СЗ) 20000 м    9/0 средняя, верхняя 
[Ac lent|Ci fib]
-12.8 -20.8 51 -15  1017  0.7  699  297           
15 21.02.18 тихо ()   н/о    9/0 верхняя 
[Ci sp]
-27.2 -30.8 72 -27  1023.1  0.2  699  315           
18 21.02.18 070 (В) н/о    8/0 верхняя 
[Ci sp]
-32.8 -37 66 -34  1025.2  0.1  699  322           
21 21.02.18 070 (В) н/о    8/0 верхняя 
[Ci sp]
-33.1 -37.3 66 -37  1025  -0.3  699  322           
00 22.02.18 070 (В) 20000 м    4/0 верхняя 
[Ci fib]
-33.8 -38.2 65 -38  1026  0.6  699  323  -34.2      равномерный
сухой снег
100% 
03 22.02.18 280 (З) 20000 м    4/0 верхняя 
[Ci fib]
-19.7 -23.1 74 -20  1020.2  -0.3  699  305           
06 22.02.18 290 (З) 20000 м    3/0 верхняя 
[Ci fib]
-15.9 -22.6 56 -20  1018.1  -0.6  699  300           
09 22.02.18 300 (СЗ) 20000 м    ясно 
-16.5 -23.9 53 -20  1019.1  0.7  699  301           
15 22.02.18 080 (В) н/о    9/0 верхняя 
[Ci sp]
-30.3 -34.2 69 -34  1026.9  1.1  701  320           
18 22.02.18 080 (В) н/о    3/0 верхняя 
[Ci sp]
-33.7 -38.1 64 -35  1029.9  1.5  702  325           
21 22.02.18 070 (В) н/о    3/0 верхняя 
[Ci sp]
-35.8 -40.4 62 -40  1032.4  1.4  703  328           
00 23.02.18 060 (СВ) 20000 м    3/0 верхняя 
[Ci fib]
-35.6 -40.2 63 -37  1034.9  2.4  705  329  -36.4      равномерный
сухой снег
100% 
03 23.02.18 260 (З) 20000 м    4/0 верхняя 
[Ci fib]
-20.8 -27.3 56 -24  1031  1.7  706  310           
06 23.02.18 220 (ЮЗ) 20000 м    3/0 верхняя 
[Ci fib]
-16.4 -23.8 53 -20  1030.1  0.6  707  305           
09 23.02.18 270 (З) 20000 м    4/0 верхняя 
[Ci fib]
-15.9 -24.3 48 -20  1031.3  1.3  708  304           
12 23.02.18 тихо ()   н/о    ясно 
-24 -28.6 66 -24  1036  1.5  709  315    -14.5       
15 23.02.18 050 (СВ) н/о    н/о 
-32 -36.1 67 -33  1039.8  0.6  709  326           
18 23.02.18 070 (В) н/о    н/о 
-31.6 -35.7 67 -37  1039.1  0.6  709  325           
21 23.02.18 080 (В) н/о    ясно 
-30.3 -34.3 68 -34  1037.3  -1.1  708  323           
00 24.02.18 080 (В) 20000 м    9/0 верхняя 
[Ci sp]
-28.6 -32.4 70 -32  1036.1  -0.5  708  320  -32.4      равномерный
сухой снег
100% 
03 24.02.18 030 (СВ) 20000 м    8/0 верхняя 
[Ci sp]
-16.8 -23.5 56 -17  1030.7  -0.9  707  305           
06 24.02.18 220 (ЮЗ) 20000 м    9/0 верхняя 
[Ci sp]
-10.9 -20.2 46 -13  1026.6  -1.9  706  298           
09 24.02.18 200 (Ю) 20000 м    9/0 верхняя 
[Ci sp]
-13.6 -20.9 54 -17  1027.1  -0.4  705  301           
15 24.02.18 050 (СВ) н/о    5/0 верхняя 
[Ci sp]
-29.8 -33.7 69 -33  1033.2  0.1  705  321           
18 24.02.18 070 (В) н/о    5/0 верхняя 
[Ci sp]
-30.4 -34.4 68 -34  1032.9  -0.5  705  322           
Время (UTC), дата Ветер
(°,м/с) 
Видим.   Явления Облачность Т
(°С)
Тd
(°С)
f(%) Тe
(°С)
Pmin
(гПа)
dP
(гПа)
Po
(мм)
O2
(г/м3)
Тmin Tmax R s Состояние
почвы

Для получения пояснительной информации подведите курсор к названию столбца.

ПОГОДА Борзя - архив

Всё, что Вы хотите узнать о погоде Борзя - удобно и подробно!

Выберите нужную дату (начиная с 1 января 2015* года) и нажмите кнопку "Найти".
Будут отображены архивные сводки погоды по пункту Борзя, начиная с указанной даты.


Отображать данные в формате CSV (для использования в таблицах Excel)


Внимание! Наш архив погоды предназначен исключительно для личного некоммерческого использования в познавательных целях. Если Вам необходимы официальные справки о состоянии погоды (для производственных, юридических, коммерческих и т.п. целей), обращайтесь в органы Росгидромета.

*Примечание: данная дата относится к архиву по метеостанциям СССР (Россия, СНГ, Балтия).
Архив по метеостанциям Зарубежной Европы и Азии (кроме Китая) хранится 10 дней, по другим регионам земного шара (Китай, Африка, Америка, Австралия, Океания) - 1 день.

Борзя - район местоположения метеостанции


Название, широта, долгота, высота метеостанции:
Борзя 50.4°ш. 116.5°д. 676 м над ур. моря [Российская Федерация]

Дополнительная информация

В oтличие oт бoльшинства пoгoдных сайтoв мы публикуем пoдрoбную метеoинфoрмацию в детальнoм прoфессиoнальнoм фoрмате.

Характеристики температуры и влажнoсти вoздуха измеряются на высoте 2 м в тени вдали oт зданий и деревьев.
Скoрoсть ветра измеряется на высoте 10 м (на урoвне рoста челoвека скoрoсть ветра ниже в 1.5-2 раза). Если метеoстанция нахoдится в гoрoде или в лесу, тo скoрoсть ветра занижена на 2-4 м/с пo сравнению с oткрытым местoм. Скoрoсть ветра над акватoриями крупных рек и oзёр, а также на вершинах хoлмoв на 2-5 м/с выше, чем в oбычных услoвиях.
Атмoсфернoе давление в разных тoчках местнoсти мoжет значительнo oтличаться oт давления на метеoстанции, в зависимoсти oт услoвий рельефа (при пoдъёме на 10 м давление пoнижается примернo на 1 мм рт.ст.).